Location: Observatoire
(46.1952°N, 5.3391°E)
Time: 21:23:46
(UTC+01:00)

A-11 Canister half - Pass Details

Date: 25 February 2026
Orbit: 1525 x 1683 km, 47.3° (Epoch: 9 March)

Event Time Altitude Azimuth Distance (km) Brightness Sun altitude
Rises 19:39:46 0° 286° (WNW) 4,700 13.2 -14.7°
Reaches altitude 10° 19:42:49 10° 285° (WNW) 3,705 12.3 -15.2°
Maximum altitude 19:52:08 79° 201° (SSW) 1,552 9.0 -16.8°
Enters shadow 19:58:52 21° 119° (ESE) 2,901 9.9 -18.0°
Drops below altitude 10° 20:01:26 10° 117° (ESE) 3,705 - -18.4°
Sets 20:04:29 0° 116° (ESE) 4,699 - -19.0°
